Orange, MA

4:48 AM EST on December 07, 2019 (GMT -0500)
Orange Municipal

Weather History for KORE - October, 2019

Change the Weather History Date:

Friday, October 4, 2019

  Actual Average Record
Temperature  
Mean Temperature 50 °F -  
Max Temperature 57 °F 62 °F 82 °F (2007)
Min Temperature 44 °F 37 °F 25 °F (1996)
Degree Days  
Heating Degree Days 15    
Moisture  
Dew Point 42 °F    
Average Humidity 76    
Maximum Humidity 93    
Minimum Humidity 47    
Precipitation  
Precipitation 0.13 in - - ()
Sea Level Pressure  
Sea Level Pressure 30.05 in    
Wind  
Wind Speed 4 mph ()    
Max Wind Speed 21 mph    
Max Gust Speed 30 mph    
Visibility 8.2 miles    
Events Rain    
Averages and records for this station are not official NWS values.
T = Trace of Precipitation, MM = Missing Value Source: Averaged Metar Reports

Daily Weather History Graph

Daily Weather History Graph

Search for Another Location

Airport or City:

Astronomy

Oct. 04, 2019 Rise Set
Actual Time 6:49 AM EDT 6:25 PM EDT
Civil Twilight 6:21 AM EDT 6:53 PM EDT
Nautical Twilight 5:48 AM EDT 7:26 PM EDT
Astronomical Twilight 5:15 AM EDT 7:59 PM EDT
Moon 1:25 PM EDT (10/4) 10:45 PM EDT (10/4)
Length of Visible Light 12h 32m
Length of Day
11h 36m
Waxing Crescent, 39% of the Moon is Illuminated
Oct 4
Waxing Crescent
Oct 5
First Quarter
Oct 13
Full
Oct 21
Last Quarter
Oct 27
New

Hourly Weather History & Observations

Time (EDT) Temp. Windchill Dew Point Humidity Pressure Visibility Wind Dir Wind Speed Gust Speed Precip Events Conditions
12:22 AM 46.9 °F - 45.0 °F 93% 29.98 in 2.5 mi Calm Calm - 0.03 in Rain Light Rain
12:52 AM 46.9 °F - 45.0 °F 93% 29.99 in 2.5 mi Calm Calm - 0.06 in Rain Light Rain
12:59 AM 48.0 °F - 45.0 °F 89% 29.97 in 3.0 mi Calm Calm - 0.00 in Rain Light Rain
1:13 AM 46.9 °F - 45.0 °F 93% 29.97 in 3.0 mi Calm Calm - 0.01 in Rain Light Rain
1:25 AM 48.0 °F - 45.0 °F 89% 29.97 in 5.0 mi Calm Calm - 0.02 in Rain Light Rain
1:38 AM 48.0 °F - 45.0 °F 89% 29.96 in 4.0 mi Calm Calm - 0.02 in Rain Light Rain
1:52 AM 48.0 °F - 45.0 °F 89% 29.97 in 3.0 mi Calm Calm - 0.03 in Rain Light Rain
2:30 AM 48.0 °F - 45.0 °F 89% 29.93 in 4.0 mi Calm Calm - 0.01 in   Overcast
2:52 AM 48.0 °F - 45.0 °F 89% 29.94 in 3.0 mi Calm Calm - 0.02 in Rain Light Rain
3:52 AM 48.0 °F - 46.0 °F 93% 29.93 in 10.0 mi Calm Calm - 0.02 in   Overcast
4:34 AM 48.9 °F - 46.0 °F 90% 29.89 in 10.0 mi Calm Calm - N/A   Overcast
4:44 AM 48.9 °F - 46.0 °F 90% 29.89 in 10.0 mi Calm Calm - N/A   Overcast
4:52 AM 48.0 °F - 46.0 °F 93% 29.91 in 10.0 mi Calm Calm - N/A   Overcast
5:41 AM 48.0 °F - 46.0 °F 93% 29.90 in 10.0 mi Calm Calm - N/A   Overcast
5:52 AM 48.0 °F - 46.0 °F 93% 29.91 in 10.0 mi Calm Calm - N/A   Mostly Cloudy
6:19 AM 48.0 °F - 46.0 °F 93% 29.91 in 10.0 mi Calm Calm - N/A   Overcast
6:52 AM 48.0 °F - 46.0 °F 93% 29.91 in 10.0 mi Calm Calm - N/A   Mostly Cloudy
7:52 AM 50.0 °F - 46.9 °F 89% 29.93 in 10.0 mi Calm Calm - N/A   Scattered Clouds
8:52 AM 53.1 °F - 48.9 °F 86% 29.97 in 9.0 mi North 4.6 mph - 0.00 in   Overcast
9:52 AM 54.0 °F - 46.9 °F 77% 30.01 in 10.0 mi NNW 11.5 mph - N/A   Overcast
10:52 AM 55.9 °F - 44.1 °F 64% 30.04 in 10.0 mi NNW 15.0 mph 24.2 mph N/A   Partly Cloudy
11:52 AM 55.9 °F - 41.0 °F 57% 30.07 in 10.0 mi NNW 17.3 mph 25.3 mph N/A   Mostly Cloudy
12:52 PM 55.9 °F - 39.9 °F 55% 30.10 in 10.0 mi North 20.7 mph 29.9 mph N/A   Mostly Cloudy
1:52 PM 54.0 °F - 37.0 °F 53% 30.12 in 10.0 mi North 20.7 mph 28.8 mph N/A   Overcast
2:52 PM 55.9 °F - 36.0 °F 47% 30.13 in 10.0 mi NNW 18.4 mph 27.6 mph N/A   Mostly Cloudy
3:52 PM 55.9 °F - 37.9 °F 51% 30.15 in 10.0 mi NW 16.1 mph - N/A   Mostly Cloudy
4:52 PM 55.0 °F - 36.0 °F 49% 30.17 in 10.0 mi NW 17.3 mph - N/A   Mostly Cloudy
5:52 PM 52.0 °F - 35.1 °F 53% 30.20 in 10.0 mi NW 17.3 mph - N/A   Clear
6:52 PM 50.0 °F - 34.0 °F 54% 30.25 in 10.0 mi NNW 11.5 mph 18.4 mph N/A   Clear
7:52 PM 48.0 °F - 34.0 °F 58% 30.28 in 10.0 mi North 9.2 mph - N/A   Overcast
8:52 PM 46.9 °F - 33.1 °F 59% 30.31 in 10.0 mi NNW 9.2 mph - N/A   Mostly Cloudy
9:52 PM 46.0 °F 42.5 °F 33.1 °F 61% 30.33 in 10.0 mi North 6.9 mph - N/A   Mostly Cloudy
10:52 PM 45.0 °F 39.3 °F 33.1 °F 63% 30.35 in 10.0 mi North 11.5 mph 18.4 mph N/A   Clear
11:52 PM 44.1 °F 38.6 °F 30.9 °F 60% 30.37 in 10.0 mi North 10.4 mph - N/A   Clear